Location: Hilton Head Island
(32.2163°N, 80.7526°W)
Time: 01:07:58
(UTC-05:00)

Vanguard 1 - Pass Details

Date: 22 February 2026
Orbit: 653 x 3818 km, 34.2° (Epoch: 5 March)

Event Time Altitude Azimuth Distance (km) Brightness Sun altitude
Rises 11:19:35 0° 183° (S) 3,229 13.4 43.9°
Reaches altitude 10° 11:23:37 10° 150° (SSE) 2,659 13.4 44.3°
Maximum altitude 11:25:48 12° 129° (SE) 2,754 13.3 44.5°
Drops below altitude 10° 11:28:19 10° 109° (ESE) 3,179 13.3 44.7°
Sets 11:34:36 0° 82° (E) 4,920 13.8 45.3°
